WMT5030 LATI-LIBP

Flight info

Callsign WMT5030
Flight time 0h 55m
Altitude 38000
Route DIRES DCT PAPIZ DCT ENOXA DCT BANAV DCT GARGA DCT RIVAM M169 ERPOG
Aircraft A321/M-SDE3FGHIRWY/LB1

Departure

Time 2026-05-01 13:38
Airport Tirana International Airport Mother Teresa (LATI)

Arrival

Time 2026-05-01 14:33
Airport Abruzzo Airport (LIBP)
Time Latitude Longitude Altitude Speed Heading
2026-05-01 13:01 41.41910 19.71524 124 ft 0 kts 264°
2026-05-01 13:27 41.41912 19.71549 120 ft 4 kts 261°
2026-05-01 13:27 41.41945 19.71581 119 ft 2 kts 174°
2026-05-01 13:28 41.41951 19.71580 120 ft 0 kts 174°
2026-05-01 13:30 41.41940 19.71582 118 ft 1 kts 174°
2026-05-01 13:31 41.41868 19.71591 123 ft 11 kts 174°
2026-05-01 13:31 41.41580 19.71631 125 ft 21 kts 174°
2026-05-01 13:32 41.41287 19.71669 129 ft 21 kts 175°
2026-05-01 13:33 41.40891 19.71727 131 ft 22 kts 172°
2026-05-01 13:33 41.40578 19.71785 132 ft 24 kts 175°
2026-05-01 13:34 41.40343 19.71869 133 ft 15 kts 143°
2026-05-01 13:34 41.40240 19.72058 133 ft 11 kts 84°
2026-05-01 13:35 41.40242 19.72086 133 ft 0 kts 84°
2026-05-01 13:35 41.40250 19.72196 133 ft 10 kts 86°
2026-05-01 13:36 41.40280 19.72217 132 ft 0 kts 353°
2026-05-01 13:37 41.40425 19.72198 132 ft 59 kts 354°
2026-05-01 13:38 41.42092 19.71986 549 ft 148 kts 357°
2026-05-01 13:38 41.43108 19.71853 1455 ft 147 kts 359°
2026-05-01 13:38 41.44192 19.71711 1863 ft 167 kts 358°
2026-05-01 13:39 41.45432 19.71552 2231 ft 191 kts 357°
2026-05-01 13:39 41.46823 19.71367 2638 ft 209 kts 356°
2026-05-01 13:39 41.48355 19.71154 2958 ft 237 kts 356°
2026-05-01 13:39 41.50057 19.70911 3569 ft 251 kts 357°
2026-05-01 13:40 41.51809 19.70668 4460 ft 255 kts 359°
2026-05-01 13:40 41.53584 19.70430 5374 ft 258 kts 358°
2026-05-01 13:40 41.55400 19.70196 6180 ft 266 kts 357°
2026-05-01 13:40 41.57263 19.69956 6958 ft 272 kts 356°
2026-05-01 13:41 41.59163 19.69708 7829 ft 275 kts 356°
2026-05-01 13:41 41.61060 19.69289 8709 ft 280 kts 343°
2026-05-01 13:41 41.62707 19.67919 9589 ft 289 kts 317°
2026-05-01 13:41 41.63841 19.65699 10454 ft 294 kts 293°
2026-05-01 13:42 41.64234 19.62964 11017 ft 313 kts 270°
2026-05-01 13:42 41.63637 19.60058 11256 ft 341 kts 240°
2026-05-01 13:42 41.61982 19.57726 11699 ft 354 kts 212°
2026-05-01 13:42 41.59817 19.56113 12428 ft 359 kts 207°
2026-05-01 13:43 41.57581 19.54580 13114 ft 364 kts 206°
2026-05-01 13:43 41.55308 19.53059 13841 ft 368 kts 206°
2026-05-01 13:43 41.52996 19.51516 14459 ft 374 kts 207°
2026-05-01 13:43 41.50670 19.49950 15230 ft 375 kts 207°
2026-05-01 13:44 41.48348 19.48373 15993 ft 375 kts 208°
2026-05-01 13:44 41.46010 19.46775 16662 ft 380 kts 208°
2026-05-01 13:44 41.43649 19.45157 17298 ft 385 kts 208°
2026-05-01 13:44 41.41253 19.43512 17940 ft 389 kts 208°
2026-05-01 13:45 41.38838 19.41853 18598 ft 392 kts 208°
2026-05-01 13:45 41.36406 19.40184 19204 ft 395 kts 208°
2026-05-01 13:45 41.33950 19.38502 19787 ft 399 kts 210°
2026-05-01 13:45 41.31504 19.36825 20402 ft 401 kts 209°
2026-05-01 13:46 41.29016 19.35120 21050 ft 403 kts 209°
2026-05-01 13:46 41.26515 19.33403 21684 ft 406 kts 210°
2026-05-01 13:46 41.23996 19.31675 22270 ft 409 kts 209°
2026-05-01 13:46 41.21447 19.29932 22825 ft 413 kts 209°
2026-05-01 13:47 41.18883 19.28180 23418 ft 415 kts 208°
2026-05-01 13:47 41.16307 19.26422 23960 ft 418 kts 209°
2026-05-01 13:47 41.13713 19.24652 24395 ft 421 kts 209°
2026-05-01 13:47 41.11096 19.22869 24854 ft 423 kts 209°
2026-05-01 13:48 41.08470 19.21073 25321 ft 425 kts 210°
2026-05-01 13:48 41.05982 19.18967 25779 ft 425 kts 220°
2026-05-01 13:48 41.03784 19.16361 26209 ft 423 kts 230°
2026-05-01 13:48 41.01809 19.13470 26647 ft 425 kts 231°
2026-05-01 13:49 40.99815 19.10557 27075 ft 428 kts 231°
2026-05-01 13:49 40.97832 19.07680 27546 ft 429 kts 231°
2026-05-01 13:49 40.95816 19.04770 28024 ft 430 kts 230°
2026-05-01 13:49 40.93867 19.01770 28421 ft 430 kts 237°
2026-05-01 13:50 40.92373 18.98364 28823 ft 428 kts 249°
2026-05-01 13:50 40.91447 18.94650 29233 ft 426 kts 260°
2026-05-01 13:50 40.91106 18.90772 29601 ft 425 kts 271°
2026-05-01 13:50 40.91352 18.86880 29940 ft 426 kts 282°
2026-05-01 13:51 40.92155 18.83101 30291 ft 428 kts 289°
2026-05-01 13:51 40.93094 18.79361 30612 ft 430 kts 288°
2026-05-01 13:51 40.94028 18.75597 30917 ft 432 kts 289°
2026-05-01 13:51 40.94962 18.71806 31254 ft 433 kts 288°
2026-05-01 13:52 40.95890 18.68016 31660 ft 433 kts 288°
2026-05-01 13:52 40.96813 18.64231 32066 ft 432 kts 288°
2026-05-01 13:52 40.97734 18.60450 32491 ft 431 kts 288°
2026-05-01 13:52 40.98648 18.56685 32927 ft 429 kts 288°
2026-05-01 13:53 40.99558 18.52926 33358 ft 428 kts 288°
2026-05-01 13:53 41.01380 18.45448 34194 ft 425 kts 288°
2026-05-01 13:53 41.02274 18.41774 34535 ft 424 kts 288°
2026-05-01 13:54 41.03175 18.38060 34843 ft 424 kts 288°
2026-05-01 13:54 41.04180 18.34398 35146 ft 423 kts 297°
2026-05-01 13:54 41.05745 18.31098 35442 ft 423 kts 304°
2026-05-01 13:54 41.07425 18.27898 35748 ft 423 kts 304°
2026-05-01 13:55 41.09107 18.24704 36057 ft 423 kts 304°
2026-05-01 13:55 41.10790 18.21508 36360 ft 422 kts 304°
2026-05-01 13:55 41.12470 18.18318 36653 ft 422 kts 304°
2026-05-01 13:55 41.14151 18.15123 36951 ft 421 kts 304°
2026-05-01 13:56 41.15827 18.11928 37121 ft 422 kts 303°
2026-05-01 13:56 41.17497 18.08741 37176 ft 421 kts 304°
2026-05-01 13:56 41.20845 18.02340 37155 ft 423 kts 304°
2026-05-01 13:57 41.23636 17.97005 37160 ft 423 kts 304°
2026-05-01 13:57 41.27535 17.89529 37160 ft 423 kts 304°
2026-05-01 13:58 41.30885 17.83076 37168 ft 424 kts 304°
2026-05-01 13:58 41.34230 17.76617 37173 ft 424 kts 304°
2026-05-01 13:59 41.37578 17.70144 37180 ft 424 kts 304°
2026-05-01 13:59 41.40924 17.63664 37175 ft 425 kts 304°
2026-05-01 14:00 41.44276 17.57169 37190 ft 425 kts 304°
2026-05-01 14:00 41.47627 17.50667 37187 ft 425 kts 304°
2026-05-01 14:01 41.50944 17.44194 37197 ft 425 kts 304°
2026-05-01 14:01 41.54275 17.37667 37193 ft 426 kts 304°
2026-05-01 14:02 41.57619 17.31129 37194 ft 427 kts 304°
2026-05-01 14:02 41.60967 17.24569 37195 ft 427 kts 304°
2026-05-01 14:03 41.64166 17.17863 37199 ft 428 kts 301°
2026-05-01 14:03 41.67104 17.10944 37209 ft 428 kts 299°
2026-05-01 14:04 41.70010 17.03993 37203 ft 428 kts 300°
2026-05-01 14:04 41.72468 16.98248 37202 ft 428 kts 300°
2026-05-01 14:05 41.75962 16.90257 37218 ft 428 kts 301°
2026-05-01 14:05 41.78977 16.83378 37228 ft 428 kts 301°
2026-05-01 14:06 41.81973 16.76466 37230 ft 429 kts 301°
2026-05-01 14:06 41.83468 16.73006 37087 ft 429 kts 301°
2026-05-01 14:06 41.84962 16.69541 36821 ft 429 kts 301°
2026-05-01 14:07 41.86454 16.66079 36573 ft 428 kts 301°
2026-05-01 14:07 41.87947 16.62614 36331 ft 428 kts 301°
2026-05-01 14:07 41.89442 16.59147 36088 ft 430 kts 301°
2026-05-01 14:08 41.92441 16.52190 35609 ft 430 kts 301°
2026-05-01 14:08 41.93934 16.48707 35378 ft 431 kts 301°
2026-05-01 14:08 41.95430 16.45212 35137 ft 432 kts 301°
2026-05-01 14:08 41.96912 16.41745 34465 ft 435 kts 302°
2026-05-01 14:09 41.98427 16.38195 33575 ft 440 kts 302°
2026-05-01 14:09 41.99951 16.34630 32971 ft 438 kts 302°
2026-05-01 14:09 42.01457 16.31105 32514 ft 433 kts 302°
2026-05-01 14:09 42.02951 16.27599 32003 ft 429 kts 303°
2026-05-01 14:10 42.04425 16.24126 31491 ft 426 kts 303°
2026-05-01 14:10 42.05888 16.20676 30986 ft 423 kts 303°
2026-05-01 14:10 42.07339 16.17257 30479 ft 420 kts 303°
2026-05-01 14:10 42.08782 16.13855 29911 ft 417 kts 303°
2026-05-01 14:11 42.10211 16.10478 29411 ft 412 kts 303°
2026-05-01 14:11 42.13020 16.03833 28424 ft 403 kts 303°
2026-05-01 14:11 42.14404 16.00564 27911 ft 400 kts 303°
2026-05-01 14:12 42.15780 15.97313 27389 ft 397 kts 304°
2026-05-01 14:12 42.17140 15.94089 26913 ft 394 kts 303°
2026-05-01 14:12 42.18491 15.90879 26437 ft 392 kts 303°
2026-05-01 14:12 42.19831 15.87686 25958 ft 390 kts 303°
2026-05-01 14:13 42.21151 15.84544 25469 ft 389 kts 303°
2026-05-01 14:13 42.22052 15.82398 25141 ft 389 kts 303°
2026-05-01 14:13 42.23806 15.78216 24587 ft 385 kts 303°
2026-05-01 14:13 42.25124 15.75076 24150 ft 384 kts 303°
2026-05-01 14:14 42.26436 15.71941 23679 ft 382 kts 303°
2026-05-01 14:14 42.27736 15.68825 23203 ft 379 kts 303°
2026-05-01 14:14 42.29019 15.65738 22761 ft 375 kts 303°
2026-05-01 14:14 42.30287 15.62681 22310 ft 371 kts 303°
2026-05-01 14:15 42.31541 15.59652 21873 ft 367 kts 304°
2026-05-01 14:15 42.32784 15.56658 21431 ft 363 kts 304°
2026-05-01 14:15 42.34017 15.53694 20962 ft 360 kts 304°
2026-05-01 14:15 42.35241 15.50751 20506 ft 357 kts 304°
2026-05-01 14:16 42.36451 15.47839 20047 ft 355 kts 304°
2026-05-01 14:16 42.37656 15.44940 19587 ft 352 kts 304°
2026-05-01 14:16 42.38852 15.42057 19106 ft 350 kts 304°
2026-05-01 14:16 42.40041 15.39187 18643 ft 349 kts 304°
2026-05-01 14:17 42.41226 15.36329 18135 ft 347 kts 304°
2026-05-01 14:17 42.42382 15.33529 17678 ft 344 kts 304°
2026-05-01 14:17 42.43542 15.30705 17217 ft 341 kts 304°
2026-05-01 14:17 42.44687 15.27911 16745 ft 338 kts 304°
2026-05-01 14:18 42.45822 15.25137 16305 ft 335 kts 304°
2026-05-01 14:18 42.46948 15.22386 15851 ft 333 kts 303°
2026-05-01 14:18 42.47827 15.19469 15407 ft 337 kts 290°
2026-05-01 14:18 42.48158 15.17407 15092 ft 340 kts 283°
2026-05-01 14:19 42.48595 15.13172 14475 ft 339 kts 282°
2026-05-01 14:19 42.48921 15.10017 14005 ft 338 kts 283°
2026-05-01 14:19 42.49242 15.06913 13520 ft 336 kts 283°
2026-05-01 14:19 42.49567 15.03786 13060 ft 334 kts 282°
2026-05-01 14:20 42.49889 15.00675 12603 ft 332 kts 282°
2026-05-01 14:20 42.50533 14.94520 11706 ft 328 kts 282°
2026-05-01 14:20 42.50849 14.91464 11245 ft 327 kts 282°
2026-05-01 14:21 42.51164 14.88427 10815 ft 325 kts 282°
2026-05-01 14:21 42.51478 14.85414 10536 ft 318 kts 282°
2026-05-01 14:21 42.51678 14.83474 10452 ft 310 kts 282°
2026-05-01 14:22 42.52346 14.76899 9934 ft 299 kts 282°
2026-05-01 14:22 42.52634 14.74098 9422 ft 301 kts 282°
2026-05-01 14:22 42.52920 14.71298 8998 ft 300 kts 282°
2026-05-01 14:22 42.53111 14.69435 8718 ft 300 kts 282°
2026-05-01 14:23 42.53394 14.66652 8371 ft 297 kts 281°
2026-05-01 14:23 42.53674 14.63879 8002 ft 296 kts 281°
2026-05-01 14:23 42.53951 14.61129 7589 ft 292 kts 281°
2026-05-01 14:23 42.54219 14.58432 6904 ft 287 kts 281°
2026-05-01 14:24 42.54485 14.55763 6160 ft 284 kts 281°
2026-05-01 14:24 42.54749 14.53123 5444 ft 280 kts 281°
2026-05-01 14:24 42.55006 14.50525 4759 ft 277 kts 281°
2026-05-01 14:24 42.55264 14.47927 4386 ft 276 kts 281°
2026-05-01 14:25 42.55517 14.45373 4096 ft 271 kts 281°
2026-05-01 14:25 42.55764 14.42861 3601 ft 266 kts 281°
2026-05-01 14:25 42.56005 14.40408 3228 ft 257 kts 281°
2026-05-01 14:25 42.56232 14.38092 3056 ft 239 kts 281°
2026-05-01 14:26 42.56445 14.35921 2977 ft 224 kts 281°
2026-05-01 14:26 42.55880 14.32026 2752 ft 209 kts 242°
2026-05-01 14:26 42.54917 14.30537 2671 ft 210 kts 222°
2026-05-01 14:27 42.53802 14.29388 2527 ft 194 kts 221°
2026-05-01 14:27 42.52758 14.28298 2274 ft 185 kts 223°
2026-05-01 14:27 42.51753 14.27250 2038 ft 180 kts 222°
2026-05-01 14:28 42.49807 14.25228 1558 ft 170 kts 222°
2026-05-01 14:28 42.48886 14.24272 1333 ft 165 kts 221°
2026-05-01 14:28 42.47992 14.23343 1119 ft 164 kts 221°
2026-05-01 14:28 42.47170 14.22326 1090 ft 157 kts 245°
2026-05-01 14:29 42.46791 14.20980 1096 ft 154 kts 260°
2026-05-01 14:29 42.46547 14.19573 1094 ft 154 kts 264°
2026-05-01 14:30 42.45123 14.15799 1092 ft 159 kts 221°
2026-05-01 14:30 42.44232 14.14892 1095 ft 162 kts 221°
2026-05-01 14:30 42.43302 14.14009 1092 ft 164 kts 219°
2026-05-01 14:31 42.41459 14.12254 1086 ft 162 kts 217°
2026-05-01 14:31 42.40387 14.11889 1089 ft 164 kts 169°
2026-05-01 14:31 42.39440 14.12640 1078 ft 157 kts 123°
2026-05-01 14:31 42.39200 14.13950 1067 ft 141 kts 66°
2026-05-01 14:32 42.39806 14.14884 821 ft 133 kts 31°
2026-05-01 14:32 42.40549 14.15610 559 ft 130 kts 36°
2026-05-01 14:32 42.41266 14.16366 363 ft 130 kts 34°
2026-05-01 14:32 42.41975 14.17106 203 ft 128 kts 34°
2026-05-01 14:33 42.42682 14.17831 57 ft 122 kts 34°
2026-05-01 14:33 42.43188 14.18360 47 ft 52 kts 38°
2026-05-01 14:33 42.43331 14.18576 49 ft 23 kts 65°
2026-05-01 14:33 42.43361 14.18702 48 ft 13 kts 90°
2026-05-01 14:34 42.43302 14.18780 48 ft 13 kts 159°
2026-05-01 14:34 42.43212 14.18807 48 ft 13 kts 192°
2026-05-01 14:34 42.43146 14.18748 48 ft 12 kts 218°
2026-05-01 14:34 42.43074 14.18670 48 ft 14 kts 217°
2026-05-01 14:35 42.43022 14.18662 48 ft 8 kts 140°
2026-05-01 14:35 42.43001 14.18697 48 ft 1 kts 127°
2026-05-01 14:35 42.43000 14.18699 48 ft 0 kts 127°